PGT2505 SAWC-SAWH

Flight info

Callsign PGT2505
Flight time 0h 59m
Altitude 37000
Route DEVIS2H DEVIS UW52 GAL UW42 GRA DCT USU
Aircraft A20N/M-SDE2E3FGHIRWXY/LB1

Departure

Time 2026-05-07 00:11
Airport El Calafate - Commander Armando Tola International Airport (SAWC)

Arrival

Time 2026-05-07 01:10
Airport Ushuaia - Malvinas Argentinas International Airport (SAWH)
Time Latitude Longitude Altitude Speed Heading
2026-05-06 23:42 -50.28331 -72.05270 641 ft 0 kts 265°
2026-05-07 00:01 -50.28330 -72.05250 641 ft 2 kts 249°
2026-05-07 00:01 -50.28318 -72.05234 644 ft 2 kts 178°
2026-05-07 00:01 -50.28302 -72.05236 642 ft 2 kts 181°
2026-05-07 00:01 -50.28285 -72.05237 642 ft 2 kts 166°
2026-05-07 00:02 -50.28269 -72.05245 641 ft 2 kts 166°
2026-05-07 00:02 -50.28253 -72.05243 642 ft 2 kts 234°
2026-05-07 00:02 -50.28248 -72.05226 642 ft 1 kts 262°
2026-05-07 00:02 -50.28248 -72.05224 642 ft 0 kts 264°
2026-05-07 00:04 -50.28248 -72.05225 642 ft 0 kts 264°
2026-05-07 00:04 -50.28248 -72.05226 642 ft 1 kts 264°
2026-05-07 00:05 -50.28249 -72.05245 641 ft 2 kts 265°
2026-05-07 00:05 -50.28250 -72.05261 641 ft 1 kts 265°
2026-05-07 00:05 -50.28251 -72.05269 641 ft 1 kts 265°
2026-05-07 00:05 -50.28251 -72.05278 641 ft 1 kts 265°
2026-05-07 00:06 -50.28252 -72.05301 641 ft 3 kts 265°
2026-05-07 00:06 -50.28253 -72.05352 641 ft 5 kts 277°
2026-05-07 00:06 -50.28225 -72.05395 641 ft 6 kts 338°
2026-05-07 00:06 -50.28201 -72.05402 641 ft 5 kts 352°
2026-05-07 00:07 -50.28144 -72.05412 641 ft 7 kts 355°
2026-05-07 00:07 -50.28117 -72.05415 641 ft 5 kts 355°
2026-05-07 00:07 -50.28083 -72.05418 642 ft 5 kts 357°
2026-05-07 00:07 -50.28045 -72.05426 642 ft 5 kts 330°
2026-05-07 00:08 -50.28037 -72.05500 641 ft 9 kts 265°
2026-05-07 00:08 -50.28042 -72.05626 640 ft 14 kts 266°
2026-05-07 00:08 -50.28052 -72.05832 642 ft 22 kts 266°
2026-05-07 00:08 -50.28066 -72.06086 641 ft 25 kts 264°
2026-05-07 00:09 -50.28081 -72.06360 643 ft 26 kts 265°
2026-05-07 00:09 -50.28097 -72.06649 643 ft 28 kts 265°
2026-05-07 00:09 -50.28127 -72.06889 642 ft 18 kts 233°
2026-05-07 00:09 -50.28170 -72.07042 642 ft 9 kts 265°
2026-05-07 00:10 -50.28128 -72.07081 642 ft 5 kts
2026-05-07 00:10 -50.28121 -72.07031 642 ft 13 kts 85°
2026-05-07 00:10 -50.28087 -72.06526 642 ft 79 kts 83°
2026-05-07 00:10 -50.28013 -72.05319 650 ft 143 kts 84°
2026-05-07 00:11 -50.27935 -72.03719 1271 ft 148 kts 84°
2026-05-07 00:11 -50.27850 -72.02111 2207 ft 150 kts 84°
2026-05-07 00:11 -50.27737 -72.00429 2781 ft 164 kts 84°
2026-05-07 00:11 -50.27602 -71.98559 3251 ft 183 kts 86°
2026-05-07 00:12 -50.27477 -71.96477 3660 ft 203 kts 87°
2026-05-07 00:12 -50.27350 -71.94140 4038 ft 229 kts 86°
2026-05-07 00:12 -50.27202 -71.91535 4566 ft 252 kts 86°
2026-05-07 00:12 -50.27031 -71.88708 5221 ft 268 kts 86°
2026-05-07 00:13 -50.26848 -71.85795 6177 ft 272 kts 86°
2026-05-07 00:13 -50.26661 -71.82810 6727 ft 278 kts 86°
2026-05-07 00:13 -50.26472 -71.79811 6938 ft 278 kts 86°
2026-05-07 00:13 -50.26286 -71.76844 7014 ft 278 kts 86°
2026-05-07 00:14 -50.26383 -71.73850 7100 ft 277 kts 108°
2026-05-07 00:14 -50.27285 -71.71226 7669 ft 276 kts 130°
2026-05-07 00:14 -50.28579 -71.69024 8675 ft 276 kts 137°
2026-05-07 00:14 -50.29992 -71.66946 9536 ft 283 kts 139°
2026-05-07 00:15 -50.31458 -71.64843 10340 ft 290 kts 139°
2026-05-07 00:15 -50.32991 -71.62611 10707 ft 313 kts 137°
2026-05-07 00:15 -50.34625 -71.60176 11020 ft 335 kts 136°
2026-05-07 00:15 -50.36327 -71.57600 11712 ft 343 kts 136°
2026-05-07 00:16 -50.38049 -71.54977 12545 ft 347 kts 135°
2026-05-07 00:16 -50.39789 -71.52319 13356 ft 352 kts 135°
2026-05-07 00:16 -50.41554 -71.49620 14099 ft 357 kts 134°
2026-05-07 00:16 -50.43349 -71.46870 14743 ft 364 kts 134°
2026-05-07 00:17 -50.45175 -71.44070 15391 ft 370 kts 134°
2026-05-07 00:17 -50.47030 -71.41224 16031 ft 376 kts 134°
2026-05-07 00:17 -50.48918 -71.38324 16667 ft 382 kts 134°
2026-05-07 00:17 -50.50834 -71.35379 17300 ft 388 kts 134°
2026-05-07 00:18 -50.52775 -71.32390 17926 ft 394 kts 134°
2026-05-07 00:18 -50.54751 -71.29346 18515 ft 400 kts 134°
2026-05-07 00:18 -50.56747 -71.26266 19099 ft 404 kts 134°
2026-05-07 00:18 -50.58766 -71.23146 19672 ft 408 kts 134°
2026-05-07 00:19 -50.60800 -71.19998 20231 ft 413 kts 134°
2026-05-07 00:19 -50.62857 -71.16810 20810 ft 417 kts 134°
2026-05-07 00:19 -50.64931 -71.13592 21373 ft 421 kts 134°
2026-05-07 00:19 -50.67028 -71.10335 21910 ft 425 kts 134°
2026-05-07 00:20 -50.69114 -71.07089 22471 ft 429 kts 134°
2026-05-07 00:20 -50.71250 -71.03762 23014 ft 433 kts 134°
2026-05-07 00:20 -50.73406 -71.00399 23545 ft 438 kts 134°
2026-05-07 00:20 -50.75579 -70.97005 24017 ft 441 kts 134°
2026-05-07 00:21 -50.77762 -70.93591 24506 ft 443 kts 134°
2026-05-07 00:21 -50.79959 -70.90149 24980 ft 446 kts 134°
2026-05-07 00:21 -50.82167 -70.86685 25436 ft 449 kts 134°
2026-05-07 00:21 -50.84388 -70.83196 25892 ft 451 kts 134°
2026-05-07 00:22 -50.86622 -70.79682 26333 ft 454 kts 134°
2026-05-07 00:22 -50.88866 -70.76147 26759 ft 457 kts 134°
2026-05-07 00:22 -50.91126 -70.72582 27174 ft 460 kts 134°
2026-05-07 00:22 -50.93394 -70.69000 27579 ft 462 kts 134°
2026-05-07 00:23 -50.95678 -70.65385 27979 ft 465 kts 134°
2026-05-07 00:23 -50.97971 -70.61752 28344 ft 468 kts 134°
2026-05-07 00:23 -51.00279 -70.58091 28717 ft 470 kts 134°
2026-05-07 00:23 -51.02597 -70.54408 29072 ft 473 kts 134°
2026-05-07 00:24 -51.04917 -70.50685 29409 ft 475 kts 131°
2026-05-07 00:24 -51.07034 -70.46646 29746 ft 476 kts 125°
2026-05-07 00:24 -51.09062 -70.42435 30065 ft 479 kts 126°
2026-05-07 00:24 -51.11107 -70.38234 30356 ft 482 kts 126°
2026-05-07 00:25 -51.13167 -70.34006 30647 ft 484 kts 126°
2026-05-07 00:25 -51.15233 -70.29753 30930 ft 486 kts 126°
2026-05-07 00:25 -51.17304 -70.25477 31235 ft 488 kts 126°
2026-05-07 00:25 -51.19374 -70.21191 31592 ft 488 kts 127°
2026-05-07 00:26 -51.21418 -70.16949 31959 ft 488 kts 127°
2026-05-07 00:26 -51.23486 -70.12651 32325 ft 488 kts 127°
2026-05-07 00:26 -51.25550 -70.08351 32704 ft 487 kts 127°
2026-05-07 00:26 -51.27610 -70.04054 33068 ft 487 kts 127°
2026-05-07 00:27 -51.29664 -69.99763 33423 ft 487 kts 127°
2026-05-07 00:27 -51.31717 -69.95466 33776 ft 486 kts 127°
2026-05-07 00:27 -51.33765 -69.91173 34110 ft 485 kts 128°
2026-05-07 00:27 -51.35809 -69.86883 34408 ft 484 kts 128°
2026-05-07 00:28 -51.37846 -69.82599 34692 ft 483 kts 128°
2026-05-07 00:28 -51.39880 -69.78316 34974 ft 482 kts 128°
2026-05-07 00:28 -51.41904 -69.74047 35242 ft 481 kts 128°
2026-05-07 00:28 -51.43927 -69.69772 35503 ft 481 kts 128°
2026-05-07 00:29 -51.45948 -69.65495 35763 ft 480 kts 128°
2026-05-07 00:29 -51.47963 -69.61225 36013 ft 479 kts 128°
2026-05-07 00:30 -51.54692 -69.49574 36676 ft 474 kts 145°
2026-05-07 00:30 -51.57352 -69.46439 36901 ft 473 kts 146°
2026-05-07 00:30 -51.60010 -69.43317 37030 ft 473 kts 146°
2026-05-07 00:30 -51.62665 -69.40197 37049 ft 472 kts 146°
2026-05-07 00:31 -51.67930 -69.34001 37047 ft 472 kts 146°
2026-05-07 00:31 -51.73229 -69.27755 37047 ft 472 kts 146°
2026-05-07 00:32 -51.78541 -69.21514 37041 ft 471 kts 148°
2026-05-07 00:32 -51.84340 -69.16685 37045 ft 469 kts 159°
2026-05-07 00:33 -51.90352 -69.12569 37046 ft 469 kts 159°
2026-05-07 00:33 -51.96364 -69.08405 37039 ft 470 kts 159°
2026-05-07 00:34 -52.02336 -69.04192 37038 ft 467 kts 159°
2026-05-07 00:34 -52.08306 -68.99957 37037 ft 468 kts 159°
2026-05-07 00:35 -52.14268 -68.95715 37032 ft 468 kts 159°
2026-05-07 00:35 -52.20233 -68.91459 37038 ft 467 kts 159°
2026-05-07 00:36 -52.26191 -68.87196 37040 ft 468 kts 159°
2026-05-07 00:36 -52.32149 -68.82919 37040 ft 468 kts 158°
2026-05-07 00:37 -52.38113 -68.78627 37044 ft 468 kts 158°
2026-05-07 00:37 -52.44076 -68.74322 37049 ft 468 kts 158°
2026-05-07 00:38 -52.50036 -68.70005 37048 ft 468 kts 158°
2026-05-07 00:38 -52.55956 -68.65706 37051 ft 468 kts 158°
2026-05-07 00:39 -52.61913 -68.61367 37054 ft 468 kts 158°
2026-05-07 00:39 -52.67872 -68.57013 37053 ft 468 kts 158°
2026-05-07 00:40 -52.73824 -68.52651 37056 ft 468 kts 158°
2026-05-07 00:40 -52.79766 -68.48285 37063 ft 467 kts 158°
2026-05-07 00:41 -52.85710 -68.43906 37053 ft 467 kts 158°
2026-05-07 00:41 -52.91642 -68.39526 37062 ft 467 kts 158°
2026-05-07 00:42 -52.97574 -68.35134 37059 ft 467 kts 158°
2026-05-07 00:42 -53.03496 -68.30735 37062 ft 466 kts 158°
2026-05-07 00:43 -53.09420 -68.26321 37061 ft 466 kts 158°
2026-05-07 00:43 -53.15340 -68.21897 37062 ft 466 kts 158°
2026-05-07 00:44 -53.21254 -68.17463 37064 ft 466 kts 158°
2026-05-07 00:44 -53.27165 -68.13019 37066 ft 466 kts 158°
2026-05-07 00:45 -53.33073 -68.08563 37063 ft 466 kts 158°
2026-05-07 00:45 -53.38938 -68.04127 37062 ft 466 kts 158°
2026-05-07 00:46 -53.44845 -67.99644 36821 ft 465 kts 158°
2026-05-07 00:46 -53.47791 -67.97404 36250 ft 467 kts 157°
2026-05-07 00:46 -53.50761 -67.95143 35432 ft 471 kts 157°
2026-05-07 00:47 -53.53769 -67.92850 34488 ft 478 kts 157°
2026-05-07 00:47 -53.56826 -67.90517 33415 ft 485 kts 157°
2026-05-07 00:47 -53.59907 -67.88160 32507 ft 487 kts 157°
2026-05-07 00:47 -53.62983 -67.85801 31785 ft 485 kts 157°
2026-05-07 00:48 -53.66046 -67.83448 31140 ft 481 kts 156°
2026-05-07 00:48 -53.69069 -67.81122 30606 ft 475 kts 156°
2026-05-07 00:48 -53.72063 -67.78815 30017 ft 471 kts 156°
2026-05-07 00:48 -53.75075 -67.76735 29388 ft 464 kts 165°
2026-05-07 00:49 -53.78204 -67.75735 28793 ft 454 kts 179°
2026-05-07 00:49 -53.81314 -67.75956 28246 ft 442 kts 193°
2026-05-07 00:49 -53.84261 -67.77244 27867 ft 436 kts 201°
2026-05-07 00:49 -53.87137 -67.78879 27276 ft 436 kts 202°
2026-05-07 00:50 -53.90028 -67.80542 26496 ft 439 kts 201°
2026-05-07 00:50 -53.92912 -67.82114 26113 ft 431 kts 201°
2026-05-07 00:50 -53.95757 -67.83595 25664 ft 426 kts 200°
2026-05-07 00:50 -53.98606 -67.85042 24844 ft 429 kts 200°
2026-05-07 00:51 -54.01460 -67.86472 24396 ft 423 kts 200°
2026-05-07 00:51 -54.04256 -67.87863 24046 ft 416 kts 200°
2026-05-07 00:51 -54.07009 -67.89238 23299 ft 419 kts 199°
2026-05-07 00:51 -54.09814 -67.90642 22880 ft 410 kts 199°
2026-05-07 00:52 -54.12503 -67.91988 22437 ft 406 kts 199°
2026-05-07 00:52 -54.15204 -67.93345 21861 ft 405 kts 199°
2026-05-07 00:52 -54.17918 -67.94713 21099 ft 407 kts 199°
2026-05-07 00:52 -54.20617 -67.96073 20696 ft 399 kts 199°
2026-05-07 00:53 -54.23253 -67.97399 20295 ft 393 kts 199°
2026-05-07 00:53 -54.25891 -67.98733 19522 ft 397 kts 199°
2026-05-07 00:53 -54.28529 -68.00068 19007 ft 393 kts 199°
2026-05-07 00:53 -54.31121 -68.01379 18654 ft 385 kts 199°
2026-05-07 00:54 -54.32849 -68.02254 18271 ft 383 kts 199°
2026-05-07 00:54 -54.35407 -68.03554 17570 ft 383 kts 198°
2026-05-07 00:54 -54.37935 -68.04839 17138 ft 375 kts 198°
2026-05-07 00:54 -54.40424 -68.06105 16596 ft 371 kts 198°
2026-05-07 00:55 -54.42852 -68.07342 16078 ft 367 kts 198°
2026-05-07 00:55 -54.45292 -68.08588 15533 ft 365 kts 198°
2026-05-07 00:55 -54.47712 -68.09825 15016 ft 361 kts 198°
2026-05-07 00:55 -54.50109 -68.11051 14489 ft 358 kts 197°
2026-05-07 00:56 -54.52489 -68.12269 13966 ft 355 kts 197°
2026-05-07 00:56 -54.54844 -68.13477 13441 ft 351 kts 197°
2026-05-07 00:56 -54.57169 -68.14668 12953 ft 346 kts 197°
2026-05-07 00:56 -54.59462 -68.15845 12477 ft 341 kts 197°
2026-05-07 00:57 -54.61726 -68.17009 11993 ft 338 kts 197°
2026-05-07 00:57 -54.63968 -68.18164 11519 ft 334 kts 197°
2026-05-07 00:57 -54.66180 -68.19304 11055 ft 331 kts 197°
2026-05-07 00:57 -54.68372 -68.20435 10603 ft 327 kts 197°
2026-05-07 00:58 -54.70541 -68.21555 10212 ft 323 kts 197°
2026-05-07 00:58 -54.72705 -68.22674 10094 ft 321 kts 197°
2026-05-07 00:58 -54.74790 -68.23752 10081 ft 304 kts 197°
2026-05-07 00:58 -54.76763 -68.24772 10064 ft 286 kts 197°
2026-05-07 00:59 -54.80248 -68.26575 10068 ft 237 kts 198°
2026-05-07 00:59 -54.81755 -68.27349 10069 ft 219 kts 195°
2026-05-07 00:59 -54.83277 -68.27357 9870 ft 223 kts 162°
2026-05-07 01:00 -54.84559 -68.25933 9584 ft 221 kts 128°
2026-05-07 01:00 -54.85298 -68.23606 9301 ft 222 kts 112°
2026-05-07 01:00 -54.85858 -68.21109 8926 ft 223 kts 110°
2026-05-07 01:00 -54.86407 -68.18589 8551 ft 223 kts 111°
2026-05-07 01:01 -54.86982 -68.16094 8235 ft 221 kts 112°
2026-05-07 01:01 -54.87567 -68.13688 7972 ft 217 kts 114°
2026-05-07 01:01 -54.88164 -68.11304 7712 ft 213 kts 114°
2026-05-07 01:01 -54.88759 -68.08964 7451 ft 212 kts 114°
2026-05-07 01:02 -54.89358 -68.06620 7201 ft 212 kts 114°
2026-05-07 01:02 -54.89950 -68.04299 6946 ft 209 kts 115°
2026-05-07 01:02 -54.90540 -68.01986 6693 ft 209 kts 115°
2026-05-07 01:02 -54.91125 -67.99685 6442 ft 207 kts 115°
2026-05-07 01:03 -54.91707 -67.97393 6177 ft 207 kts 115°
2026-05-07 01:03 -54.92284 -67.95113 5909 ft 205 kts 115°
2026-05-07 01:03 -54.92856 -67.92853 5662 ft 202 kts 115°
2026-05-07 01:03 -54.93107 -67.90540 5446 ft 194 kts 83°
2026-05-07 01:04 -54.92521 -67.88502 5182 ft 190 kts 43°
2026-05-07 01:04 -54.91355 -67.87592 4912 ft 184 kts
2026-05-07 01:04 -54.90148 -67.88104 4662 ft 177 kts 331°
2026-05-07 01:04 -54.89135 -67.89270 4385 ft 173 kts 315°
2026-05-07 01:05 -54.88354 -67.90935 4147 ft 187 kts 298°
2026-05-07 01:05 -54.87828 -67.92959 4008 ft 181 kts 286°
2026-05-07 01:05 -54.87489 -67.95076 3970 ft 184 kts 280°
2026-05-07 01:05 -54.87232 -67.97252 3703 ft 183 kts 278°
2026-05-07 01:06 -54.87006 -67.99404 3411 ft 180 kts 278°
2026-05-07 01:06 -54.86784 -68.01523 3110 ft 181 kts 278°
2026-05-07 01:06 -54.86558 -68.03658 2824 ft 179 kts 279°
2026-05-07 01:06 -54.86329 -68.05787 2535 ft 179 kts 279°
2026-05-07 01:07 -54.86095 -68.07906 2295 ft 178 kts 279°
2026-05-07 01:07 -54.85859 -68.10007 2258 ft 178 kts 279°
2026-05-07 01:07 -54.85624 -68.12132 2118 ft 179 kts 279°
2026-05-07 01:07 -54.85393 -68.14230 1829 ft 175 kts 279°
2026-05-07 01:08 -54.85172 -68.16234 1514 ft 163 kts 280°
2026-05-07 01:08 -54.84961 -68.18134 1259 ft 161 kts 281°
2026-05-07 01:08 -54.84748 -68.20034 983 ft 159 kts 281°
2026-05-07 01:08 -54.84537 -68.21905 808 ft 157 kts 282°
2026-05-07 01:09 -54.84326 -68.23775 674 ft 158 kts 279°
2026-05-07 01:09 -54.84245 -68.25676 393 ft 157 kts 271°
2026-05-07 01:09 -54.84257 -68.27522 137 ft 148 kts 267°
2026-05-07 01:09 -54.84315 -68.29159 86 ft 108 kts 266°
2026-05-07 01:10 -54.84350 -68.30053 83 ft 61 kts 265°
2026-05-07 01:10 -54.84374 -68.30711 82 ft 45 kts 267°
2026-05-07 01:10 -54.84334 -68.30953 85 ft 17 kts 346°
2026-05-07 01:10 -54.84275 -68.30969 84 ft 0 kts 356°
2026-05-07 01:11 -54.84274 -68.30969 84 ft 1 kts 356°
2026-05-07 01:11 -54.84233 -68.30976 84 ft 9 kts 354°
2026-05-07 01:11 -54.84156 -68.30983 82 ft 13 kts 357°
2026-05-07 01:11 -54.84098 -68.31006 85 ft 7 kts 307°
2026-05-07 01:12 -54.84094 -68.31104 86 ft 10 kts 269°
2026-05-07 01:12 -54.84094 -68.31132 84 ft 0 kts 270°
2026-05-07 01:12 -54.84076 -68.31158 86 ft 6 kts 338°
2026-05-07 01:12 -54.84030 -68.31175 84 ft 3 kts 348°
2026-05-07 01:13 -54.84024 -68.31177 84 ft 0 kts 348°